Time,TemperatureF,DewpointF,PressureIn,WindDirection,WindDirectionDegrees,WindSpeedMPH,WindSpeedGustMPH,Humidity,HourlyPrecipIn,Conditions,Clouds,dailyrainin,SoftwareType,DateUTC
2013-03-25 00:04:00,21.1,15.2,30.18,North,0,0.2,0.2,78,0.00,,,0.00,WUHU216HW,2013-03-25 05:04:00,
2013-03-25 00:30:00,20.3,14.9,30.18,NNW,338,0.4,0.4,79,0.00,,,0.00,WUHU216HW,2013-03-25 05:30:00,
2013-03-25 00:35:00,20.3,14.9,30.18,NNW,338,0.4,0.4,79,0.00,,,0.00,WUHU216HW,2013-03-25 05:35:00,
2013-03-25 00:59:00,19.4,14.2,30.17,North,0,0.7,0.7,80,0.00,,,0.00,WUHU216HW,2013-03-25 05:59:00,
2013-03-25 01:04:00,19.4,14.2,30.17,North,0,0.7,0.7,80,0.00,,,0.00,WUHU216HW,2013-03-25 06:04:00,
2013-03-25 01:09:00,19.4,14.2,30.17,North,0,0.7,0.7,80,0.00,,,0.00,WUHU216HW,2013-03-25 06:09:00,
2013-03-25 01:30:00,19.3,14.6,30.17,North,0,1.3,1.3,82,0.00,,,0.00,WUHU216HW,2013-03-25 06:30:00,
2013-03-25 01:35:00,19.3,14.6,30.17,North,0,1.3,1.3,82,0.00,,,0.00,WUHU216HW,2013-03-25 06:35:00,
2013-03-25 01:59:00,19.4,15.0,30.16,NNW,338,1.1,1.1,83,0.00,,,0.00,WUHU216HW,2013-03-25 06:59:00,
2013-03-25 02:04:00,19.4,15.0,30.16,NNW,338,2.0,2.0,83,0.00,,,0.00,WUHU216HW,2013-03-25 07:04:00,
2013-03-25 02:09:00,19.4,15.0,30.16,NNW,338,2.0,2.0,83,0.00,,,0.00,WUHU216HW,2013-03-25 07:09:00,
2013-03-25 02:30:00,19.4,15.0,30.16,North,0,1.1,1.1,83,0.00,,,0.00,WUHU216HW,2013-03-25 07:30:00,
2013-03-25 02:35:00,19.4,15.0,30.16,North,0,1.1,1.1,83,0.00,,,0.00,WUHU216HW,2013-03-25 07:35:00,
2013-03-25 02:59:00,19.4,15.0,30.16,NNW,338,1.1,1.1,83,0.00,,,0.00,WUHU216HW,2013-03-25 07:59:00,
2013-03-25 03:04:00,19.4,15.0,30.16,NNE,23,0.7,1.1,83,0.00,,,0.00,WUHU216HW,2013-03-25 08:04:00,
2013-03-25 03:10:00,19.4,15.0,30.16,NNE,23,0.7,0.7,83,0.00,,,0.00,WUHU216HW,2013-03-25 08:10:00,
2013-03-25 03:30:00,19.4,15.3,30.16,NNW,338,1.8,1.8,84,0.00,,,0.00,WUHU216HW,2013-03-25 08:30:00,
2013-03-25 03:35:00,19.4,15.3,30.16,NNW,338,1.8,1.8,84,0.00,,,0.00,WUHU216HW,2013-03-25 08:35:00,
2013-03-25 03:59:00,19.3,14.9,30.15,NNE,23,0.2,0.2,83,0.00,,,0.00,WUHU216HW,2013-03-25 08:59:00,
2013-03-25 04:04:00,19.3,14.9,30.15,NNE,23,0.2,0.2,83,0.00,,,0.00,WUHU216HW,2013-03-25 09:04:00,
2013-03-25 04:10:00,19.3,14.9,30.15,NNE,23,0.2,0.2,83,0.00,,,0.00,WUHU216HW,2013-03-25 09:10:00,
2013-03-25 04:30:00,19.1,14.9,30.15,North,0,0.7,0.7,84,0.00,,,0.00,WUHU216HW,2013-03-25 09:30:00,
2013-03-25 04:35:00,19.1,14.9,30.15,North,0,0.7,0.7,84,0.00,,,0.00,WUHU216HW,2013-03-25 09:35:00,
2013-03-25 04:59:00,19.6,15.8,30.15,NNW,338,0.7,0.7,85,0.00,,,0.00,WUHU216HW,2013-03-25 09:59:00,
2013-03-25 05:04:00,19.6,15.8,30.15,NNW,338,0.7,0.7,85,0.00,,,0.00,WUHU216HW,2013-03-25 10:04:00,
2013-03-25 05:30:00,20.9,17.0,30.15,NNW,338,1.3,1.3,85,0.00,,,0.00,WUHU216HW,2013-03-25 10:30:00,
2013-03-25 05:35:00,20.9,17.0,30.15,NNW,338,1.3,1.3,85,0.00,,,0.00,WUHU216HW,2013-03-25 10:35:00,
2013-03-25 05:59:00,21.2,17.4,30.16,NNW,338,0.7,0.7,85,0.00,,,0.00,WUHU216HW,2013-03-25 10:59:00,
2013-03-25 06:04:00,21.2,17.4,30.16,NNW,338,0.7,0.7,85,0.00,,,0.00,WUHU216HW,2013-03-25 11:04:00,
2013-03-25 06:30:00,21.8,17.6,30.16,NNW,338,0.2,0.2,84,0.00,,,0.00,WUHU216HW,2013-03-25 11:30:00,
2013-03-25 06:35:00,21.8,17.6,30.16,NNW,338,0.2,0.2,84,0.00,,,0.00,WUHU216HW,2013-03-25 11:35:00,
2013-03-25 06:59:00,22.0,17.8,30.17,NNW,338,0.0,0.0,84,0.00,,,0.00,WUHU216HW,2013-03-25 11:59:00,
2013-03-25 07:04:00,22.0,17.8,30.17,NNW,338,0.0,0.0,84,0.00,,,0.00,WUHU216HW,2013-03-25 12:04:00,
2013-03-25 07:30:00,22.9,18.7,30.18,North,0,0.0,0.0,84,0.00,,,0.00,WUHU216HW,2013-03-25 12:30:00,
2013-03-25 07:35:00,22.9,18.7,30.18,North,0,0.0,0.0,84,0.00,,,0.00,WUHU216HW,2013-03-25 12:35:00,
2013-03-25 08:00:00,24.7,20.8,30.19,NNW,338,1.1,1.1,85,0.00,,,0.00,WUHU216HW,2013-03-25 13:00:00,
2013-03-25 08:05:00,24.7,20.8,30.19,NNW,338,1.1,1.1,85,0.00,,,0.00,WUHU216HW,2013-03-25 13:05:00,
2013-03-25 08:30:00,26.8,22.3,30.20,NNW,338,0.9,0.9,83,0.00,,,0.00,WUHU216HW,2013-03-25 13:30:00,
2013-03-25 08:35:00,26.8,22.3,30.20,NNW,338,0.9,0.9,83,0.00,,,0.00,WUHU216HW,2013-03-25 13:35:00,
2013-03-25 09:00:00,29.5,23.1,30.20,NNW,338,1.3,1.3,77,0.00,,,0.00,WUHU216HW,2013-03-25 14:00:00,
2013-03-25 09:05:00,29.5,23.1,30.20,NNW,338,1.3,1.3,77,0.00,,,0.00,WUHU216HW,2013-03-25 14:05:00,
2013-03-25 09:30:00,29.3,22.7,30.20,North,0,2.9,2.9,76,0.00,,,0.00,WUHU216HW,2013-03-25 14:30:00,
2013-03-25 09:35:00,29.3,22.7,30.20,North,0,2.9,2.9,76,0.00,,,0.00,WUHU216HW,2013-03-25 14:35:00,
2013-03-25 10:00:00,30.1,23.7,30.21,North,0,1.8,1.8,77,0.00,,,0.00,WUHU216HW,2013-03-25 15:00:00,
2013-03-25 10:05:00,30.1,23.7,30.21,North,0,1.8,1.8,77,0.00,,,0.00,WUHU216HW,2013-03-25 15:05:00,
2013-03-25 10:10:00,30.1,23.7,30.21,North,0,1.8,1.8,77,0.00,,,0.00,WUHU216HW,2013-03-25 15:10:00,
2013-03-25 10:30:00,30.6,23.2,30.22,North,0,2.5,2.5,74,0.00,,,0.00,WUHU216HW,2013-03-25 15:30:00,
2013-03-25 10:35:00,30.6,23.2,30.22,North,0,2.5,2.5,74,0.00,,,0.00,WUHU216HW,2013-03-25 15:35:00,
2013-03-25 10:59:00,31.9,23.2,30.22,NE,45,5.8,5.8,70,0.00,,,0.00,WUHU216HW,2013-03-25 15:59:00,
2013-03-25 11:04:00,31.9,23.2,30.22,NE,45,5.8,5.8,70,0.00,,,0.00,WUHU216HW,2013-03-25 16:04:00,
2013-03-25 11:30:00,33.5,24.7,30.23,NNW,338,3.1,3.1,70,0.00,,,0.00,WUHU216HW,2013-03-25 16:30:00,
2013-03-25 11:35:00,33.5,24.7,30.23,NNW,338,3.1,3.1,70,0.00,,,0.00,WUHU216HW,2013-03-25 16:35:00,
2013-03-25 11:59:00,35.3,24.3,30.23,NNW,338,3.4,3.4,64,0.00,,,0.00,WUHU216HW,2013-03-25 16:59:00,
2013-03-25 12:04:00,35.3,24.3,30.23,NNW,338,3.4,3.4,64,0.00,,,0.00,WUHU216HW,2013-03-25 17:04:00,
2013-03-25 12:30:00,37.6,25.0,30.23,North,0,3.4,3.4,60,0.00,,,0.00,WUHU216HW,2013-03-25 17:30:00,
2013-03-25 12:35:00,37.6,25.0,30.23,North,0,3.4,3.4,60,0.00,,,0.00,WUHU216HW,2013-03-25 17:35:00,
2013-03-25 12:59:00,38.3,23.5,30.23,NE,45,2.9,2.9,55,0.00,,,0.00,WUHU216HW,2013-03-25 17:59:00,
2013-03-25 13:04:00,38.3,23.5,30.23,NE,45,2.9,2.9,55,0.00,,,0.00,WUHU216HW,2013-03-25 18:04:00,
2013-03-25 13:09:00,38.3,23.5,30.23,NE,45,2.9,2.9,55,0.00,,,0.00,WUHU216HW,2013-03-25 18:09:00,
2013-03-25 13:30:00,38.2,23.3,30.23,NNW,338,1.8,1.8,55,0.00,,,0.00,WUHU216HW,2013-03-25 18:30:00,
2013-03-25 13:35:00,38.2,23.3,30.23,NNW,338,1.8,1.8,55,0.00,,,0.00,WUHU216HW,2013-03-25 18:35:00,
2013-03-25 13:59:00,38.7,23.0,30.23,North,0,4.0,4.0,53,0.00,,,0.00,WUHU216HW,2013-03-25 18:59:00,
2013-03-25 14:04:00,38.7,23.0,30.23,North,0,2.5,4.0,53,0.00,,,0.00,WUHU216HW,2013-03-25 19:04:00,
2013-03-25 14:09:00,38.7,23.0,30.23,North,0,2.5,2.5,53,0.00,,,0.00,WUHU216HW,2013-03-25 19:09:00,
2013-03-25 14:30:00,38.9,23.6,30.23,NW,315,3.4,3.4,54,0.00,,,0.00,WUHU216HW,2013-03-25 19:30:00,
2013-03-25 14:35:00,38.9,23.6,30.23,NW,315,3.4,3.4,54,0.00,,,0.00,WUHU216HW,2013-03-25 19:35:00,
2013-03-25 14:59:00,37.6,22.9,30.23,NNW,338,2.5,2.5,55,0.00,,,0.00,WUHU216HW,2013-03-25 19:59:00,
2013-03-25 15:04:00,37.8,23.4,30.23,NNW,338,2.5,2.5,56,0.00,,,0.00,WUHU216HW,2013-03-25 20:04:00,
2013-03-25 15:09:00,37.8,23.4,30.23,NNW,338,2.5,2.5,56,0.00,,,0.00,WUHU216HW,2013-03-25 20:09:00,
2013-03-25 15:30:00,36.7,22.5,30.23,North,0,5.1,5.1,56,0.00,,,0.00,WUHU216HW,2013-03-25 20:30:00,
2013-03-25 15:35:00,36.7,22.5,30.23,North,0,5.1,5.1,56,0.00,,,0.00,WUHU216HW,2013-03-25 20:35:00,
2013-03-25 15:59:00,36.2,22.9,30.24,NE,45,3.4,3.4,58,0.00,,,0.00,WUHU216HW,2013-03-25 20:59:00,
2013-03-25 16:04:00,36.2,22.9,30.24,NNE,23,4.7,4.7,58,0.00,,,0.00,WUHU216HW,2013-03-25 21:04:00,
2013-03-25 16:09:00,36.2,22.9,30.24,NNE,23,4.7,4.7,58,0.00,,,0.00,WUHU216HW,2013-03-25 21:09:00,
2013-03-25 16:30:00,34.7,22.3,30.25,NNW,338,1.3,1.3,60,0.00,,,0.00,WUHU216HW,2013-03-25 21:30:00,
2013-03-25 16:35:00,34.7,22.3,30.25,NNW,338,1.3,1.3,60,0.00,,,0.00,WUHU216HW,2013-03-25 21:35:00,
2013-03-25 16:40:00,34.7,22.3,30.25,NNW,338,1.3,1.3,60,0.00,,,0.00,WUHU216HW,2013-03-25 21:40:00,
2013-03-25 16:59:00,33.8,22.1,30.26,NNW,338,2.9,2.9,62,0.00,,,0.00,WUHU216HW,2013-03-25 21:59:00,
2013-03-25 17:04:00,33.8,22.1,30.26,NW,315,4.5,4.5,62,0.00,,,0.00,WUHU216HW,2013-03-25 22:04:00,
2013-03-25 17:09:00,33.8,22.1,30.26,NW,315,4.5,4.5,62,0.00,,,0.00,WUHU216HW,2013-03-25 22:09:00,
2013-03-25 17:30:00,32.6,21.7,30.27,North,0,1.1,1.1,64,0.00,,,0.00,WUHU216HW,2013-03-25 22:30:00,
2013-03-25 17:35:00,32.6,21.7,30.27,North,0,1.1,1.1,64,0.00,,,0.00,WUHU216HW,2013-03-25 22:35:00,
2013-03-25 17:59:00,31.9,21.8,30.28,NNW,338,1.6,1.6,66,0.00,,,0.00,WUHU216HW,2013-03-25 22:59:00,
2013-03-25 18:04:00,31.9,21.8,30.28,NNW,338,1.6,1.6,66,0.00,,,0.00,WUHU216HW,2013-03-25 23:04:00,
2013-03-25 18:30:00,30.8,20.7,30.29,North,0,1.8,1.8,66,0.00,,,0.00,WUHU216HW,2013-03-25 23:30:00,
2013-03-25 18:35:00,30.8,20.7,30.29,North,0,1.8,1.8,66,0.00,,,0.00,WUHU216HW,2013-03-25 23:35:00,
2013-03-25 18:59:00,29.9,19.8,30.30,NNW,338,1.1,1.1,66,0.00,,,0.00,WUHU216HW,2013-03-25 23:59:00,
2013-03-25 19:04:00,29.9,19.8,30.30,NNW,338,1.1,1.1,66,0.00,,,0.00,WUHU216HW,2013-03-26 00:04:00,
2013-03-25 19:30:00,29.0,18.6,30.31,NNW,338,1.8,1.8,65,0.00,,,0.00,WUHU216HW,2013-03-26 00:30:00,
2013-03-25 19:35:00,29.0,18.6,30.31,NNW,338,1.8,1.8,65,0.00,,,0.00,WUHU216HW,2013-03-26 00:35:00,
2013-03-25 19:40:00,29.0,18.6,30.31,NNW,338,1.8,1.8,65,0.00,,,0.00,WUHU216HW,2013-03-26 00:40:00,
2013-03-25 19:59:00,28.4,18.5,30.32,North,0,0.9,0.9,66,0.00,,,0.00,WUHU216HW,2013-03-26 00:59:00,
2013-03-25 20:04:00,28.4,18.5,30.32,North,0,0.9,0.9,66,0.00,,,0.00,WUHU216HW,2013-03-26 01:04:00,
2013-03-25 20:30:00,28.1,18.2,30.33,North,0,2.2,2.2,66,0.00,,,0.00,WUHU216HW,2013-03-26 01:30:00,
2013-03-25 20:35:00,28.1,18.2,30.33,North,0,2.2,2.2,66,0.00,,,0.00,WUHU216HW,2013-03-26 01:35:00,
2013-03-25 21:00:00,27.5,18.0,30.34,North,0,2.5,2.5,67,0.00,,,0.00,WUHU216HW,2013-03-26 02:00:00,
2013-03-25 21:05:00,27.5,18.0,30.34,North,0,2.5,2.5,67,0.00,,,0.00,WUHU216HW,2013-03-26 02:05:00,
2013-03-25 21:30:00,27.4,18.5,30.35,North,0,0.9,0.9,69,0.00,,,0.00,WUHU216HW,2013-03-26 02:30:00,
2013-03-25 21:35:00,27.4,18.5,30.35,North,0,0.9,0.9,69,0.00,,,0.00,WUHU216HW,2013-03-26 02:35:00,
2013-03-25 22:00:00,26.5,17.6,30.35,North,0,0.4,0.4,69,0.00,,,0.00,WUHU216HW,2013-03-26 03:00:00,
2013-03-25 22:05:00,26.5,17.6,30.35,North,0,0.4,0.4,69,0.00,,,0.00,WUHU216HW,2013-03-26 03:05:00,
2013-03-25 22:30:00,26.5,18.0,30.35,North,0,0.9,0.9,70,0.00,,,0.00,WUHU216HW,2013-03-26 03:30:00,
2013-03-25 22:35:00,26.5,18.0,30.35,North,0,0.9,0.9,70,0.00,,,0.00,WUHU216HW,2013-03-26 03:35:00,
2013-03-25 23:00:00,26.3,18.1,30.36,NE,45,1.1,1.1,71,0.00,,,0.00,WUHU216HW,2013-03-26 04:00:00,
2013-03-25 23:05:00,26.3,18.1,30.36,NE,45,1.1,1.1,71,0.00,,,0.00,WUHU216HW,2013-03-26 04:05:00,
2013-03-25 23:30:00,25.7,17.9,30.35,North,0,0.7,0.7,72,0.00,,,0.00,WUHU216HW,2013-03-26 04:30:00,
2013-03-25 23:35:00,25.7,17.9,30.35,North,0,0.7,0.7,72,0.00,,,0.00,WUHU216HW,2013-03-26 04:35:00,
2013-03-25 23:59:00,25.0,17.2,30.36,North,0,0.0,0.0,72,0.00,,,0.00,WUHU216HW,2013-03-26 04:59:00,